Vertical_Velocity
-3 1 2 0 0 0 -0 -1 -0 0 -1 -1 -1 -2 -3 -1 -1 -1 -2 -1 -2 -1 -3 -1 0 1 0 -1 1 2 1 3 2 -0 1 -1 -1 5 -4 4 2 -4 -0 4 4 2 -5
-1 -3 0 2 -0 -1 -1 -0 -1 -0 -1 -1 -1 -0 -0 -2 -1 -2 -1 -2 -2 -1 -1 -1 -1 1 0 4 -3 0 3 3 2 4 5 3 3 5 -0 0 2 7 15 16 22 12 18
0 -1 -0 -0 1 -0 0 -1 -0 -1 -0 -1 -1 -0 -0 -0 -2 -2 -3 -2 -1 -0 -2 -1 -2 -2 1 1 -0 -1 1 1 4 1 0 -0 2 6 11 8 -1 6 -2 -4 1 -6 -8
0 0 -1 -1 0 -1 -0 -0 0 -1 -1 -2 -1 -2 -2 0 -3 -1 -1 -1 -1 -2 -1 1 -1 -2 2 1 -0 1 -0 -0 -3 2 1 3 4 2 2 4 -4 0 3 1 5 7 1
1 -1 -1 -1 -1 -0 -0 -0 0 -1 -1 -2 -2 -0 -2 -2 0 -2 -3 -2 -1 -2 -1 1 -0 -0 -1 2 -1 1 -2 -4 1 -0 -4 -1 -3 -1 2 2 -1 -1 -12 -6 -6 -6 13
-1 0 1 -1 0 -0 1 -1 -1 -0 -1 -2 -2 -0 -1 -2 -1 -3 -3 -1 -3 -1 2 2 -3 1 -0 1 -2 1 3 0 -3 -4 -1 -5 0 1 5 3 -7 4 12 10 11 7 0
1 -1 0 0 -1 0 0 -1 0 -1 -1 -2 -2 -1 -2 -1 -2 -0 -0 -1 1 -6 3 2 -0 -1 -1 1 -0 -2 -3 3 6 1 -2 -7 1 -17 16 5 16 7 2 3 -3 -6 -8
5 1 -2 0 -1 -1 1 -0 -1 -1 -2 -1 -1 -2 -1 -2 -3 1 -4 1 -1 3 -4 -3 -3 -2 -1 -2 -2 -3 -2 -9 -13 -9 -3 -9 -2 33 8 6 1 13 8 -5 -13 1 -2
3 2 -1 -3 -0 0 -0 -0 -1 -2 -2 -2 -1 -1 -3 -1 -2 -5 -3 -3 -1 -1 1 1 -1 -0 -6 -5 -2 -7 -8 -6 -8 -4 -10 -6 14 -10 -3 -4 2 3 9 3 11 -2 2
1 1 1 -3 -1 0 0 -2 -0 -2 -2 -3 -1 1 -1 -3 -3 -3 -6 -4 -1 -1 2 2 -4 -1 -2 -13 -2 -10 -3 -11 -1 -3 -2 -7 7 -9 -13 21 1 -11 -3 -5 1 4 -1
1 -0 1 -2 -0 -1 -0 -4 -2 -2 -1 -1 -2 -3 -2 -1 -4 -2 -5 -4 -3 -2 -1 -1 -5 -1 6 -12 1 -5 -2 1 -3 -9 5 13 -9 -3 7 -7 10 8 14 6 1 1 14
-0 -1 -0 -1 -1 -0 -3 -2 -2 -0 -2 -2 -2 -2 -2 -4 -4 -2 -3 -4 -2 -0 -1 -1 -1 -5 -2 -5 -3 -6 -8 9 -4 -12 -9 -2 4 22 8 6 -4 -2 -9 -25 -4 8 12
0 1 0 -0 -2 -1 -1 -2 -2 -1 -2 -1 -3 -4 -2 -3 -1 -1 -3 -4 -2 -8 0 -1 -6 -4 6 -7 -3 -5 -8 8 -9 -16 -17 -11 -19 8 -5 -12 -14 2 -5 -5 -4 1 3
-4 -2 -1 -1 -1 -1 -1 -1 -3 -0 -2 -2 -4 -2 -4 -4 -4 -5 -2 -4 -8 3 -2 -1 -2 -2 -2 -1 -8 -11 -4 8 -11 -8 -6 -5 -35 0 -26 14 24 -5 20 10 2 1 -3
-5 1 -0 -1 -2 0 -1 -0 -3 -3 -2 -2 -4 -2 -2 0 -3 -4 0 -5 -0 -1 -4 -6 -2 -4 -9 -0 -3 -13 -4 11 1 -5 -7 1 -15 -22 7 18 32 -23 1 1 8 4 8
5 0 -1 -0 -1 -2 -0 -1 -3 -2 -1 -1 -2 -2 -1 -2 -3 -2 -3 -4 -1 -2 -2 -0 1 -4 -0 -5 -6 -7 -3 5 -0 -2 4 -7 -16 -5 -12 -15 8 18 6 -14 -9 -1 -2
3 -1 -0 -2 -2 -4 0 -2 -2 -2 -2 -1 -3 -5 -4 -3 -2 -3 -8 -3 -2 -4 -4 -1 -3 -2 1 1 -5 -5 8 4 2 -1 4 9 10 -23 -5 -3 -3 -7 -6 -4 3 2 0
6 0 0 1 -6 -3 -0 -2 -2 0 -2 -2 -1 -4 -4 -1 -3 -7 -3 -2 -3 -5 -2 -3 -2 2 -2 -1 -7 -1 11 5 -2 -0 -9 2 2 -5 4 -1 -1 3 -4 2 2 -6 -0
5 1 0 -1 -3 -2 -2 -2 -1 -2 -1 -1 -2 -2 -1 -4 -8 -2 -3 -2 -4 -2 -2 -2 -1 1 -2 -3 -6 -2 -1 1 4 -8 -6 -2 4 -6 7 9 2 -7 -6 1 1 1 2
1 3 -0 -2 -0 -1 -2 -1 -2 -1 -2 -1 -3 -5 -1 0 -3 -1 -4 -4 -4 -1 -1 -1 -2 -1 -1 -4 3 -2 -4 -5 0 -2 -2 1 7 3 3 2 2 -1 -3 -1 0 3 -0
-2 6 -1 -1 0 -0 -2 -2 -1 -2 -2 -3 -3 -2 -4 -3 -1 -2 -5 -3 -2 -1 2 -3 -2 -1 -1 -4 -4 -3 1 -4 1 -1 -4 -3 -0 2 1 1 0 -0 -1 -1 -2 -1 -0
9 2 -2 -1 1 -1 -2 -2 -2 -0 -1 -2 -2 -2 -2 -2 -3 -2 -6 -3 -3 0 0 -5 0 -0 -1 -2 0 -7 -2 1 -3 0 -4 -2 -1 -2 -1 2 1 -1 -1 -1 -1 0 -1
8 -1 1 -1 -1 -1 -2 -1 -0 -1 -1 0 -1 -2 -1 -2 -4 -2 -3 -2 -2 1 -3 -0 0 -3 -1 -1 -1 -0 -1 0 -1 -2 -2 -2 -3 2 6 1 -0 1 -4 -2 -2 -1 -0
9 -0 1 1 -2 -1 -2 -1 -1 -0 -0 -2 -3 -2 -2 -3 -3 -3 -2 -0 -2 -2 -2 -1 -1 -4 -1 -1 -1 -1 -1 0 -1 -0 -0 -1 -0 2 3 1 -2 -1 -2 -3 -2 1 0
8 1 2 -1 -1 -1 -3 -0 -1 -0 -1 -2 -2 -1 -3 -2 -2 -3 -2 -2 -3 -0 -3 -2 -2 -2 0 -2 -1 -4 -1 1 -3 -6 0 -0 -1 0 2 3 -0 -3 -4 -2 -0 -2 -1
2 2 3 -2 1 -5 -0 -0 -0 0 -1 -0 -2 -0 -2 -2 -2 -2 -3 -3 -3 -4 -2 -1 -2 -1 -1 -2 -3 -3 -2 -3 -1 -0 0 -1 -3 -3 -2 1 -1 -2 -2 -0 -2 -3 0
2 4 -0 0 -3 -1 -1 -1 -0 0 -1 -0 -2 -1 -2 -0 -4 -3 -4 -2 -1 -5 1 -2 -3 -0 -2 -1 -2 -2 -0 -2 -3 -3 -8 -7 -3 -5 -3 -2 -3 -0 -0 -2 -6 -5 -2
2 3 -1 -1 -2 1 -1 -2 -0 0 -1 -1 -1 -1 -1 0 -2 -1 -5 -2 -2 -6 0 -2 0 -3 -1 -1 -3 -2 -1 -2 -3 -2 -2 -3 -2 -2 -0 1 -5 -0 -1 -1 -0 0 1
3 -1 -1 -1 1 -0 -1 -0 0 -0 -0 -1 -1 -0 -3 -0 -0 -1 -4 -2 -1 -4 -1 -3 -4 -4 -0 -1 -3 -1 -2 -1 -1 -3 -2 -3 -3 -3 -4 -6 -2 -1 -1 -2 0 -1 -2
Height
3114 3112 3110 3108 3106 3104 3101 3099 3097 3094 3092 3090 3088 3085 3082 3079 3076 3073 3069 3066 3064 3061 3058 3055 3052 3050 3047 3045 3043 3040 3039 3038 3037 3036 3036 3035 3034 3035 3029 3030 3031 3024 3024 3025 3026 3027 3027
3114 3112 3109 3106 3104 3103 3100 3097 3095 3093 3091 3088 3086 3084 3081 3077 3073 3070 3068 3064 3061 3058 3055 3052 3048 3046 3044 3041 3036 3034 3032 3031 3030 3030 3029 3028 3028 3029 3024 3024 3024 3023 3020 3019 3021 3020 3021
3113 3111 3108 3106 3103 3101 3099 3096 3094 3092 3089 3087 3084 3081 3078 3074 3071 3067 3064 3061 3057 3054 3051 3048 3045 3041 3040 3037 3031 3028 3026 3024 3023 3023 3022 3023 3022 3021 3020 3018 3016 3016 3007 3006 3007 3011 3010
3112 3109 3107 3105 3102 3100 3097 3095 3092 3090 3087 3085 3082 3079 3075 3071 3067 3064 3060 3056 3053 3049 3046 3043 3039 3034 3030 3027 3024 3024 3023 3022 3020 3018 3017 3016 3015 3013 3012 3012 3008 3008 3004 2997 2999 3005 3004
3111 3108 3106 3104 3102 3099 3096 3093 3091 3088 3086 3082 3079 3077 3073 3069 3064 3060 3056 3052 3048 3044 3040 3036 3034 3029 3025 3024 3020 3021 3016 3016 3015 3013 3012 3011 3009 3009 3010 3007 3004 3002 2991 2994 2993 3002 3004
3110 3108 3105 3103 3101 3098 3095 3092 3090 3087 3084 3080 3076 3074 3070 3066 3061 3056 3052 3047 3042 3039 3035 3032 3026 3028 3024 3020 3015 3017 3015 3011 3012 3011 3010 3010 3008 3006 3005 3003 2996 2995 2991 2987 2985 2992 2987
3109 3108 3104 3101 3100 3097 3094 3091 3088 3084 3081 3078 3074 3071 3067 3062 3058 3054 3049 3044 3041 3033 3029 3026 3023 3021 3020 3018 3013 3009 3010 3012 3008 3007 3006 3008 3007 3006 3003 3000 2991 2988 2986 2980 2979 2984 2979
3107 3106 3103 3100 3098 3095 3092 3089 3086 3082 3079 3075 3072 3068 3064 3059 3055 3051 3046 3041 3035 3032 3021 3020 3021 3021 3019 3016 3015 3004 3005 3004 3002 3000 2999 3002 3003 3000 2996 2995 2992 2987 2982 2979 2977 2976 2975
3106 3104 3101 3098 3096 3093 3090 3086 3083 3080 3076 3073 3069 3065 3059 3055 3050 3047 3042 3038 3032 3027 3022 3020 3019 3018 3018 3016 3009 3002 3001 2999 2998 3000 2999 2998 2999 2993 2991 2990 2986 2983 2982 2979 2978 2975 2974
3104 3102 3099 3097 3094 3090 3087 3084 3081 3077 3073 3070 3065 3061 3056 3051 3048 3042 3038 3032 3027 3023 3020 3023 3020 3017 3013 3014 3010 3006 3002 3001 3001 2999 2996 2997 2994 2992 2991 2988 2984 2981 2979 2976 2974 2972 2970
3102 3100 3097 3094 3091 3087 3084 3081 3078 3074 3070 3066 3062 3058 3052 3046 3042 3038 3034 3028 3023 3021 3024 3025 3020 3019 3017 3013 3012 3008 3004 3000 3000 2999 2999 2998 2992 2991 2988 2986 2984 2981 2977 2975 2971 2967 2966
3099 3097 3095 3092 3089 3085 3081 3077 3074 3070 3066 3063 3058 3053 3049 3043 3038 3034 3029 3025 3022 3023 3028 3027 3023 3019 3017 3012 3010 3009 3006 3002 3000 2998 2996 2994 2993 2991 2988 2983 2982 2979 2974 2970 2964 2961 2959
3095 3095 3093 3090 3086 3082 3077 3074 3071 3067 3063 3058 3055 3050 3045 3040 3037 3031 3026 3023 3023 3023 3029 3026 3020 3018 3017 3012 3010 3008 3007 3003 3000 2995 2993 2992 2991 2989 2986 2983 2979 2976 2973 2969 2962 2954 2951
3092 3093 3090 3087 3083 3079 3074 3070 3067 3064 3060 3055 3051 3048 3042 3038 3034 3029 3026 3023 3022 3028 3025 3025 3022 3019 3017 3014 3011 3011 3011 3006 3002 3001 2997 2994 2988 2988 2985 2982 2979 2974 2974 2970 2961 2958 2953
3090 3089 3086 3084 3080 3075 3071 3067 3064 3061 3056 3052 3047 3044 3039 3035 3031 3027 3025 3022 3026 3026 3025 3022 3020 3018 3019 3017 3012 3012 3011 3007 3003 3001 3002 2996 2990 2984 2981 2981 2980 2971 2970 2968 2963 2959 2951
3084 3084 3083 3080 3076 3072 3068 3064 3061 3058 3053 3048 3043 3040 3037 3033 3029 3026 3023 3023 3024 3024 3023 3021 3020 3019 3018 3016 3013 3012 3009 3005 3004 3002 3000 2999 2988 2982 2980 2977 2975 2973 2969 2967 2966 2966 2957
3078 3080 3078 3076 3071 3069 3065 3061 3058 3054 3050 3045 3041 3036 3034 3030 3027 3025 3022 3023 3023 3022 3022 3022 3020 3018 3018 3014 3014 3012 3010 3005 3001 2999 2999 2995 2991 2981 2980 2977 2973 2971 2969 2970 2970 2966 2961
3074 3075 3074 3071 3067 3065 3061 3057 3054 3050 3046 3042 3037 3034 3030 3028 3028 3022 3021 3022 3022 3020 3020 3019 3018 3017 3015 3012 3011 3011 3009 3004 3000 2998 2993 2992 2987 2982 2980 2976 2974 2971 2972 2971 2970 2964 2962
3070 3070 3069 3067 3064 3061 3057 3053 3050 3046 3042 3038 3034 3032 3028 3025 3023 3021 3020 3021 3020 3019 3018 3016 3016 3015 3012 3011 3011 3007 3006 3003 3000 2996 2992 2990 2987 2983 2979 2979 2974 2972 2972 2970 2968 2966 2963
3065 3065 3064 3062 3059 3056 3052 3049 3047 3043 3039 3035 3032 3030 3027 3025 3021 3020 3020 3020 3019 3018 3016 3014 3014 3012 3010 3009 3009 3005 3002 3000 2997 2994 2992 2990 2987 2985 2984 2981 2978 2975 2972 2969 2967 2966 2962
3060 3059 3057 3056 3054 3051 3048 3045 3042 3039 3035 3032 3029 3027 3025 3024 3020 3020 3019 3018 3017 3016 3014 3012 3011 3008 3006 3004 3003 3002 3000 2997 2995 2992 2990 2988 2985 2983 2980 2978 2975 2974 2972 2969 2966 2965 2963
3055 3053 3053 3051 3049 3046 3044 3041 3038 3035 3031 3029 3028 3026 3022 3021 3020 3019 3018 3017 3016 3014 3013 3011 3009 3007 3005 3003 3001 2997 2996 2994 2993 2991 2989 2987 2984 2980 2977 2974 2974 2972 2971 2968 2966 2964 2962
3049 3048 3047 3045 3043 3042 3039 3037 3034 3030 3028 3025 3023 3022 3021 3020 3018 3018 3017 3015 3014 3013 3011 3009 3007 3005 3004 3002 3000 2997 2995 2994 2992 2990 2987 2984 2981 2979 2974 2974 2973 2972 2971 2968 2965 2963 2961
3044 3042 3041 3039 3038 3037 3035 3033 3030 3027 3025 3023 3021 3020 3019 3018 3017 3016 3015 3014 3012 3012 3010 3008 3005 3003 3002 2999 2998 2996 2994 2992 2991 2989 2986 2982 2978 2977 2974 2974 2976 2973 2970 2967 2963 2961 2959
3037 3036 3035 3032 3033 3033 3031 3028 3026 3023 3022 3020 3019 3018 3017 3015 3015 3014 3013 3012 3011 3010 3009 3007 3005 3003 3000 2999 2997 2995 2994 2992 2989 2987 2985 2981 2978 2976 2975 2973 2973 2970 2969 2966 2961 2959 2957
3031 3030 3028 3028 3028 3027 3026 3024 3022 3020 3019 3018 3016 3015 3014 3014 3013 3012 3011 3010 3009 3009 3007 3005 3003 3001 2999 2998 2996 2996 2994 2991 2990 2988 2985 2982 2980 2978 2975 2974 2975 2972 2969 2964 2960 2959 2957
3024 3024 3022 3024 3022 3023 3022 3020 3019 3018 3017 3016 3014 3013 3012 3011 3010 3010 3010 3009 3007 3006 3005 3003 3002 3000 2999 2997 2995 2995 2993 2991 2990 2988 2984 2981 2979 2977 2975 2975 2973 2971 2968 2965 2963 2966 2956
3018 3017 3017 3018 3019 3019 3018 3016 3015 3015 3014 3014 3012 3011 3011 3009 3007 3007 3007 3007 3005 3004 3003 3002 3002 2999 2997 2996 2995 2994 2992 2991 2989 2988 2985 2983 2980 2978 2976 2975 2974 2971 2968 2967 2965 2960 2956
3012 3011 3012 3013 3015 3015 3014 3013 3012 3011 3011 3010 3010 3009 3008 3008 3007 3005 3005 3005 3003 3003 3002 2999 3000 2998 2996 2994 2993 2992 2990 2989 2988 2986 2983 2982 2982 2980 2978 2975 2972 2969 2966 2964 2961 2958 2955